[[{"header":{"parameterUnit":"m.s-1","parameterCategory":1,"la1":30.2991,"la2":30.254,"lo1":-89.0895,"lo2":-89.0444,"dy":0.0017,"dx":0.0017,"nx":28,"ny":28,"refTime":"2025-03-03T03:00:00:Z","depth":0,"parameterNumber":2,"parameterNumberName":"U-component_of_WINDS"},"data":[0,0,0,0,0,0,0,0,0,0,0,0,0,0,0,0,0,0,0,0,0,0,0,0,0,0,0,0,0,0,0,0,0,0,0,0,0,0,0,0,0,0,0,0,0,0,0,0,0,0,0,0,0,0,0,0,0,0,1.7621,1.7619,0,1.7449,1.7448,1.7446,1.7355,1.7355,1.7354,1.7354,1.7181,1.7177,1.7172,0,0,0,0,0,0,0,0,0,0,0,0,0,1.7873,1.7869,1.7621,1.7619,1.7617,1.745,1.7447,1.7445,1.7355,1.7355,1.7354,1.7354,1.7183,1.7177,1.7172,0,0,0,0,0,0,0,0,0,0,0,0,0,1.7739,1.7867,1.7621,1.7552,1.7544,1.745,1.7447,1.7444,1.7355,1.7355,1.7354,1.7354,1.7184,1.7178,1.7171,1.7135,0,0,1.7151,1.7148,0,0,0,0,0,0,0,0,1.7746,1.773,1.7564,1.7556,1.7547,1.7423,1.7473,1.7341,1.7355,1.7427,1.7354,1.7354,1.7262,1.7249,1.7217,1.7127,1.712,1.715,1.7146,1.7143,1.7142,0,0,0,0,0,0,0,1.7756,1.7736,1.7553,1.7562,1.7551,1.753,1.751,1.7447,1.7348,1.742,1.7413,1.7394,1.7257,1.7224,1.7213,1.7117,1.7151,1.7145,1.714,1.7138,1.6989,1.6989,0,0,0,0,0,0,1.7776,1.7745,1.7559,1.7548,1.7648,1.7525,1.7504,1.7463,1.7348,1.7331,1.7395,1.7391,1.7236,1.7221,1.7206,1.7156,1.7143,1.7137,1.7133,1.6989,1.6989,1.6989,0,0,0,0,0,0,1.7782,1.776,1.7566,1.7644,1.7618,1.7521,1.7477,1.746,1.7427,1.7329,1.7311,1.7379,1.7235,1.7216,1.7153,1.7149,1.7134,1.7128,1.6989,1.6989,1.6989,1.7057,0,0,0,0,0,0,1.7789,1.7763,1.7748,1.7645,1.7614,1.7515,1.7476,1.7457,1.7415,1.7408,1.7309,1.7292,1.7233,1.7164,1.7147,1.714,1.7123,1.6989,1.6989,1.6989,1.7055,1.706,1.7064,0,0,0,0,0,1.7799,1.7774,1.7747,1.7725,1.7593,1.7515,1.7498,1.7429,1.7415,1.7399,1.7337,1.7296,1.7153,1.7158,1.7138,1.7129,1.6989,1.6989,1.6989,1.7053,1.7059,1.7063,0,0,0,0,0,0,1.788,1.7759,1.7728,1.7669,1.7603,1.75,1.7478,1.7437,1.7374,1.7371,1.7289,1.7267,1.7213,1.7165,1.7173,1.7088,1.7066,1.7063,1.7122,1.7127,1.7131,1.7144,1.7117,0,0,0,0,0,1.7891,1.7837,1.7735,1.7693,1.7661,1.7576,1.7539,1.7492,1.742,1.7392,1.7324,1.7257,1.7197,1.7159,1.7098,1.7047,1.7025,1.7031,1.7036,1.704,1.7038,1.7007,1.7009,1.6989,1.6989,1.6989,0,0,1.7913,1.7841,1.7812,1.7707,1.765,1.7597,1.7552,1.7498,1.7458,1.7384,1.7321,1.7269,1.7189,1.7132,1.7104,1.709,1.7038,1.704,1.7044,1.7039,1.7008,1.701,1.7012,1.6989,1.6989,1.6989,0,0,1.7927,1.7866,1.7825,1.7768,1.7682,1.7625,1.7616,1.7518,1.7481,1.7416,1.7359,1.7311,1.7209,1.7154,1.7113,1.7106,1.7066,1.7088,1.7111,1.7083,1.7084,1.7085,1.7083,1.7083,1.7086,1.7086,1.7086,0,1.7966,1.7882,1.7809,1.7757,1.7713,1.7643,1.7601,1.755,1.7449,1.7421,1.7407,1.7277,1.7218,1.7148,1.7146,1.7115,1.7102,1.7099,1.709,1.709,1.709,1.7087,1.7087,1.709,1.7089,1.7089,1.7089,0,1.7935,1.7878,1.7855,1.7758,1.7711,1.7665,1.7585,1.7547,1.7504,1.7449,1.7385,1.7311,1.7234,1.7214,1.7172,1.7138,1.7132,1.7105,1.7082,1.7097,1.7092,1.7091,1.7094,1.7093,1.7092,1.7091,0,0,1.7995,1.7858,1.785,1.7806,1.7706,1.7661,1.7612,1.7535,1.7505,1.7438,1.7395,1.731,1.7284,1.7237,1.7189,1.7164,1.7163,1.7139,1.7136,1.7147,1.7122,1.7143,1.7143,1.7136,1.7136,1.7135,1.7129,0,1.7994,1.7901,1.7834,1.7767,1.7714,1.7647,1.7604,1.7539,1.7486,1.7434,1.7376,1.7317,1.7288,1.7259,1.7231,1.7169,1.7157,1.7169,1.7096,1.7095,1.7119,1.7141,1.7163,1.716,1.7127,1.7126,1.7126,0,1.7981,1.7915,1.7844,1.7749,1.7724,1.7687,1.7612,1.7563,1.7488,1.7451,1.7399,1.7349,1.7294,1.7276,1.72,1.721,1.7176,1.7141,1.714,1.7131,1.7112,1.7133,1.7158,1.7158,1.7123,1.7123,1.7123,0,1.8033,1.7926,1.7869,1.7833,1.7722,1.7697,1.765,1.7574,1.7533,1.7467,1.744,1.737,1.7332,1.7279,1.7211,1.7204,1.7143,1.7119,1.7112,1.7114,1.7103,1.7104,1.7123,1.7081,1.7081,1.7081,1.7081,0,1.8039,1.7998,1.7891,1.7856,1.7808,1.7732,1.7687,1.7634,1.7567,1.7521,1.7459,1.7418,1.733,1.7279,1.7226,1.7172,1.7155,1.7124,1.7111,1.713,1.7134,1.7107,1.7106,1.7081,1.7081,1.7081,1.7081,0,1.8089,1.8016,1.7949,1.7849,1.7823,1.7792,1.7706,1.767,1.7614,1.7557,1.754,1.7452,1.7388,1.7315,1.7227,1.7192,1.7142,1.7122,1.7167,1.7159,1.7157,1.7158,1.7159,1.7156,1.7116,1.7117,1.7117,0,1.8099,1.8065,1.7961,1.7925,1.7879,1.7823,1.778,1.7704,1.7662,1.7574,1.7549,1.748,1.7421,1.7322,1.7251,1.7183,1.7162,1.7166,1.7151,1.7172,1.7162,1.7165,1.7162,1.7171,1.7172,1.7173,1.7173,0,1.8123,1.8088,1.8029,1.7957,1.7907,1.7847,1.7784,1.7759,1.767,1.7626,1.7559,1.7514,1.7423,1.7356,1.728,1.7232,1.7188,1.7179,1.7173,1.7193,1.7221,1.7206,1.7179,1.7179,1.7178,1.7178,1.7178,1.7177,1.8153,1.812,1.8042,1.7978,1.7922,1.7865,1.7826,1.7765,1.7708,1.7628,1.7586,1.7521,1.7446,1.7339,1.7293,1.7241,1.7226,1.7219,1.7217,1.7216,1.7222,1.7229,1.7226,1.7226,1.7226,1.7226,1.7225,0,1.8175,1.8121,1.8063,1.7976,1.7926,1.7888,1.7817,1.7777,1.772,1.7654,1.7597,1.7521,1.7455,1.7379,1.7308,1.7282,1.726,1.7266,1.7267,1.7257,1.7239,1.725,1.7285,1.7285,1.7285,1.7285,1.7285,1.7285,1.8181,1.8123,1.8079,1.7994,1.794,1.7874,1.7837,1.7784,1.7731,1.7648,1.7593,1.7544,1.7474,1.7398,1.7336,1.7315,1.7293,1.7305,1.7279,1.7263,1.7258,1.7254,1.7264,1.7301,1.7301,1.7301,1.7301,1.7301]},{"header":{"parameterUnit":"m.s-1","parameterCategory":1,"la1":30.2991,"la2":30.254,"lo1":-89.0895,"lo2":-89.0444,"dy":0.0017,"dx":0.0017,"nx":28,"ny":28,"refTime":"2025-03-03T03:00:00:Z","depth":0,"parameterNumber":3,"parameterNumberName":"V-component_of_WINDS"},"data":[0,0,0,0,0,0,0,0,0,0,0,0,0,0,0,0,0,0,0,0,0,0,0,0,0,0,0,0,0,0,0,0,0,0,0,0,0,0,0,0,0,0,0,0,0,0,0,0,0,0,0,0,0,0,0,0,0,0,8.2513,8.2519,0,8.311,8.3117,8.3124,8.3252,8.3248,8.3243,8.3239,8.3859,8.3879,8.39,0,0,0,0,0,0,0,0,0,0,0,0,0,8.1487,8.1505,8.2512,8.252,8.2527,8.3109,8.3117,8.3125,8.3253,8.3248,8.3242,8.3237,8.3853,8.3877,8.3902,0,0,0,0,0,0,0,0,0,0,0,0,0,8.1993,8.1511,8.2511,8.2661,8.268,8.3107,8.3117,8.3128,8.3254,8.3247,8.3241,8.3235,8.3844,8.3874,8.3905,8.4228,0,0,8.3999,8.4013,0,0,0,0,0,0,0,0,8.1964,8.2031,8.2631,8.2651,8.2674,8.31,8.2983,8.3497,8.3256,8.3037,8.3239,8.3232,8.3612,8.3662,8.3789,8.4257,8.4283,8.4002,8.4021,8.4034,8.4043,0,0,0,0,0,0,0,8.1929,8.2006,8.2749,8.264,8.2666,8.27,8.2764,8.3081,8.3355,8.3055,8.3066,8.3134,8.3623,8.3759,8.3804,8.4292,8.4001,8.4029,8.4048,8.406,8.5055,8.5063,0,0,0,0,0,0,8.1867,8.1976,8.273,8.2767,8.2295,8.2723,8.2796,8.297,8.3351,8.3403,8.3139,8.3138,8.3709,8.3768,8.3827,8.4233,8.4034,8.4063,8.4081,8.5047,8.5057,8.5065,0,0,0,0,0,0,8.1844,8.1933,8.2706,8.2375,8.2475,8.2748,8.2942,8.2985,8.3121,8.3415,8.3465,8.3228,8.3706,8.3783,8.4127,8.4256,8.4077,8.4105,8.5038,8.505,8.5061,8.5044,0,0,0,0,0,0,8.1814,8.1924,8.2049,8.2376,8.2492,8.2995,8.295,8.3001,8.3173,8.3177,8.3511,8.356,8.3707,8.408,8.4157,8.4295,8.4129,8.5028,8.5044,8.5057,8.5035,8.5054,8.5071,0,0,0,0,0,8.1777,8.2022,8.2055,8.2145,8.2654,8.3002,8.3069,8.3231,8.3183,8.3312,8.3499,8.355,8.4226,8.4114,8.4202,8.4351,8.5021,8.5039,8.5056,8.5027,8.505,8.507,0,0,0,0,0,0,8.1708,8.2068,8.2108,8.2466,8.2702,8.3023,8.3192,8.325,8.3508,8.3501,8.3692,8.3766,8.4099,8.4258,8.4126,8.4683,8.4622,8.4658,8.4569,8.4594,8.4611,8.457,8.4155,0,0,0,0,0,8.1732,8.1983,8.2285,8.2571,8.2687,8.2917,8.3075,8.3178,8.3432,8.3534,8.3747,8.3993,8.4261,8.4435,8.4698,8.5054,8.5131,8.52,8.5218,8.5231,8.5263,8.5466,8.5501,8.5124,8.5124,8.5123,0,0,8.179,8.2017,8.2165,8.2563,8.2758,8.3016,8.3002,8.3275,8.3469,8.3576,8.3915,8.4078,8.4365,8.4717,8.4882,8.486,8.5382,8.5254,8.5262,8.5288,8.5488,8.5523,8.5555,8.5136,8.5134,8.5132,0,0,8.2027,8.2222,8.2484,8.2677,8.2971,8.3122,8.3183,8.3495,8.3608,8.3948,8.4034,8.4266,8.4724,8.4926,8.5088,8.5392,8.545,8.5472,8.557,8.5765,8.5795,8.5822,8.5936,8.5974,8.5501,8.5501,8.5501,0,8.2063,8.2453,8.2611,8.2881,8.3054,8.3156,8.3424,8.3605,8.397,8.4088,8.4055,8.463,8.4831,8.5232,8.5305,8.5431,8.5511,8.544,8.5777,8.5806,8.5834,8.5945,8.5987,8.5502,8.5502,8.5502,8.5502,0,8.2484,8.2752,8.2927,8.3275,8.3467,8.3733,8.3933,8.4108,8.4191,8.4345,8.4691,8.4932,8.5247,8.5347,8.5433,8.5761,8.5738,8.5738,8.5682,8.5869,8.5977,8.602,8.5504,8.5504,8.5503,8.5503,0,0,8.2706,8.313,8.3193,8.3352,8.3679,8.3891,8.416,8.4464,8.4612,8.4857,8.5092,8.5472,8.5474,8.5657,8.5765,8.5934,8.6166,8.5915,8.5925,8.5959,8.6546,8.655,8.6596,8.62,8.6209,8.6216,8.6524,0,8.2988,8.3473,8.362,8.4028,8.4279,8.4375,8.4611,8.4837,8.4986,8.5222,8.5386,8.5655,8.5633,8.5745,8.5916,8.6101,8.6287,8.6079,8.6426,8.6436,8.6359,8.6652,8.6658,8.6938,8.6567,8.6574,8.6579,0,8.3386,8.3635,8.4067,8.436,8.4471,8.468,8.497,8.5191,8.545,8.5546,8.5746,8.5839,8.6126,8.6044,8.6443,8.6298,8.6447,8.6557,8.6572,8.6619,8.6525,8.6713,8.7031,8.7076,8.6646,8.664,8.6636,0,8.3511,8.3954,8.427,8.4401,8.4751,8.4895,8.5048,8.5299,8.5471,8.5723,8.5837,8.6118,8.6275,8.6492,8.6658,8.6582,8.7044,8.6976,8.7136,8.7132,8.7238,8.7231,8.7592,8.7318,8.7318,8.7317,8.7316,0,8.3817,8.4079,8.4331,8.4527,8.4822,8.4986,8.5275,8.5432,8.5654,8.5883,8.598,8.6193,8.6395,8.6635,8.6765,8.7078,8.7146,8.7235,8.7269,8.7232,8.7222,8.7339,8.7327,8.7328,8.7326,8.7323,8.7321,0,8.4013,8.4191,8.4543,8.4841,8.4922,8.5128,8.5385,8.5578,8.5725,8.6014,8.6091,8.6325,8.6612,8.6795,8.7161,8.7248,8.7593,8.7616,8.7506,8.7524,8.7676,8.7662,8.8133,8.8205,8.7874,8.7877,8.788,0,8.4201,8.4405,8.4723,8.4881,8.5034,8.5288,8.5463,8.5629,8.5808,8.6114,8.6271,8.6562,8.6807,8.726,8.7465,8.7744,8.778,8.7925,8.7824,8.778,8.7791,8.778,8.7803,8.7945,8.7948,8.795,8.7952,0,8.4518,8.4595,8.4842,8.5119,8.5324,8.5551,8.5778,8.5902,8.6108,8.6303,8.6595,8.6783,8.7153,8.7444,8.7741,8.7899,8.7963,8.7979,8.8033,8.8003,8.7933,8.7979,8.756,8.7972,8.797,8.7968,8.7967,8.7966,8.4723,8.4908,8.516,8.5431,8.5617,8.5826,8.6023,8.6192,8.6438,8.6752,8.6833,8.714,8.739,8.7795,8.7958,8.8202,8.8184,8.826,8.8281,8.8299,8.8304,8.7885,8.8255,8.8255,8.8255,8.8254,8.8254,0,8.5051,8.5215,8.5462,8.5775,8.5988,8.6019,8.6271,8.6448,8.6716,8.6942,8.7177,8.7513,8.7793,8.8015,8.8303,8.8455,8.8491,8.8526,8.8522,8.8558,8.8301,8.8229,8.8492,8.8492,8.8492,8.8492,8.8492,8.8492,8.5247,8.5563,8.5668,8.6077,8.6241,8.654,8.6681,8.6874,8.7055,8.7425,8.7656,8.7797,8.8023,8.8327,8.8585,8.8643,8.8748,8.8779,8.8843,8.8601,8.8576,8.8551,8.8485,8.8798,8.8798,8.9082,8.9085,8.9086]}]]